Location: Baia Mare
(47.6567°N, 23.5850°E)
Time: 14:13:36
(UTC+03:00)

ISS - Pass Details

Date: 23 July 2019
Orbit: 409 x 418 km, 51.6° (Epoch: 21 July)

Event Time Altitude Azimuth Distance (km) Brightness Sun altitude
Rises 00:00:39 0° 285° (WNW) 2,353 0.6 -19.1°
Reaches altitude 10° 00:02:50 10° 293° (WNW) 1,488 -0.4 -19.2°
Maximum altitude 00:06:01 41° 5° (N) 618 -2.5 -19.4°
Enters shadow 00:08:24 16° 72° (ENE) 1,189 -1.5 -19.6°
